FW4346 Weather Reports


time (UTC)temp
F
wind
direction
speed
knots
gust
knots
rain 1hr
in
rain 24hr
in
rain mn
in
humidity
%
barometer
mb
20260505124553 62 360 7.0 13.0 0.00 0.00 0.00 53 1008.3
20260505123051 63 360 6.1 13.9 0.00 0.00 0.00 53 1008.1
20260505121546 63 360 6.1 12.2 0.00 0.00 0.00 52 1008.1
20260505120043 64 360 6.1 12.2 0.00 0.00 0.00 52 1007.9
20260505114541 64 360 5.2 12.2 0.00 0.00 0.00 51 1007.9
20260505113047 64 360 4.3 10.4 0.00 0.00 0.00 51 1007.9
20260505111637 65 360 3.5 11.3 0.00 0.00 0.00 51 1007.7
20260505101546 66 360 6.1 15.6 0.00 0.00 0.00 51 1007.3
20260505100050 66 360 8.7 13.0 0.00 0.00 0.00 51 1007.1
20260505094527 67 360 6.1 10.4 0.00 0.00 0.00 50 1007.4
20260505093022 67 360 7.8 17.4 0.00 0.00 0.00 49 1007.0
20260505091515 67 360 8.7 16.5 0.00 0.00 0.00 49 1006.4
20260505090012 67 360 12.2 20.0 0.00 0.00 0.00 49 1006.4
20260505084509 67 360 11.3 15.6 0.00 0.00 0.00 49 1006.3
20260505083006 68 360 12.2 20.0 0.00 0.00 0.00 48 1006.2
20260505081506 68 360 10.4 16.5 0.00 0.00 0.00 48 1006.2
20260505080001 68 360 9.6 17.4 0.00 0.00 0.00 48 1006.0
20260505074557 68 360 9.6 17.4 0.00 0.00 0.00 48 1006.0
20260505073058 68 360 9.6 16.5 0.00 0.00 0.00 47 1005.8
20260505071555 69 360 10.4 18.2 0.00 0.00 0.00 46 1005.9
20260505070047 69 360 7.0 15.6 0.00 0.00 0.00 45 1005.9
20260505064547 70 360 8.7 16.5 0.00 0.00 0.00 44 1005.7
20260505063050 70 360 7.8 16.5 0.00 0.00 0.00 43 1005.7
20260505061546 70 360 9.6 15.6 0.00 0.00 0.00 43 1005.6
20260505060047 71 360 10.4 15.6 0.00 0.00 0.00 42 1005.2
20260505054548 71 360 12.2 20.9 0.00 0.00 0.00 41 1005.1
20260505053047 72 360 9.6 19.1 0.00 0.00 0.00 40 1005.1
20260505051545 72 360 10.4 16.5 0.00 0.00 0.00 40 1005.1
20260505041541 74 360 10.4 15.6 0.00 0.00 0.00 37 1005.0
20260505040043 75 360 8.7 19.1 0.00 0.00 0.00 36 1004.7
20260505034545 75 360 10.4 15.6 0.00 0.00 0.00 35 1004.4
20260505033039 76 360 7.0 15.6 0.00 0.00 0.00 34 1004.4
20260505031547 77 360 8.7 17.4 0.00 0.00 0.00 32 1004.2
20260505030038 78 360 7.0 13.0 0.00 0.00 0.00 30 1004.3
20260505024538 80 355 5.2 13.0 0.00 0.00 0.00 27 1004.2
20260505023037 81 355 7.8 13.9 0.00 0.00 0.00 23 1004.1
20260505021536 83 355 6.1 12.2 0.00 0.00 0.00 21 1003.9
20260505020037 84 355 4.3 14.8 0.00 0.00 0.00 19 1004.1
20260505014535 85 5 7.0 13.0 0.00 0.00 0.00 18 1004.1
20260505013032 86 5 6.1 12.2 0.00 0.00 0.00 16 1004.2
20260505011536 86 14 8.7 13.9 0.00 0.00 0.00 14 1004.2
20260505010053 87 30 7.0 13.0 0.00 0.00 0.00 15 1004.2
20260505004529 88 73 4.3 9.6 0.00 0.00 0.00 12 1004.2
20260505003026 88 73 2.6 6.1 0.00 0.00 0.00 12 1004.2
20260505001523 88 73 1.7 5.2 0.00 0.00 0.00 12 1004.1
20260505000032 87 73 3.5 8.7 0.00 0.00 0.00 11 1004.3
20260504234516 88 73 7.0 9.6 0.00 0.00 0.00 10 1004.4
20260504233012 87 73 3.5 8.7 0.00 0.00 0.00 11 1004.4
20260504231508 87 74 5.2 9.6 0.00 0.00 0.00 11 1004.5
20260504230006 88 75 1.7 5.2 0.00 0.00 0.00 13 1004.7
20260504224502 88 75 2.6 5.2 0.00 0.00 0.00 13 1004.8
20260504223104 87 75 2.6 5.2 0.00 0.00 0.00 12 1004.8
20260504221604 86 75 1.7 4.3 0.00 0.00 0.00 14 1004.8
20260504220052 86 75 1.7 5.2 0.00 0.00 0.00 14 1005.0
20260504214559 86 75 1.7 4.3 0.00 0.00 0.00 13 1005.4
20260504213100 86 75 3.5 6.1 0.00 0.00 0.00 15 1005.5
20260504211547 85 75 1.7 4.3 0.00 0.00 0.00 15 1005.8
20260504210039 84 75 1.7 7.8 0.00 0.00 0.00 16 1005.9
20260504204535 83 75 1.7 7.0 0.00 0.00 0.00 17 1006.3
20260504203044 81 75 2.6 7.8 0.00 0.00 0.00 21 1006.4
20260504201529 81 76 4.3 7.0 0.00 0.00 0.00 21 1006.4
20260504200026 81 75 0.9 5.2 0.00 0.00 0.00 22 1006.6
20260504194531 80 75 1.7 7.0 0.00 0.00 0.00 22 1006.6
20260504193021 80 75 2.6 8.7 0.00 0.00 0.00 25 1006.7
20260504191530 79 75 4.3 8.7 0.00 0.00 0.00 27 1006.7
20260504190013 76 75 5.2 8.7 0.00 0.00 0.00 27 1007.1
20260504184514 75 75 0.9 7.0 0.00 0.00 0.00 32 1007.3
20260504183006 73 79 5.2 9.6 0.00 0.00 0.00 35 1007.3
20260504181510 75 75 7.0 8.7 0.00 0.00 0.00 33 1007.4
20260504180104 74 360 1.7 8.7 0.00 0.00 0.00 34 1007.3
20260504174558 73 360 3.5 7.8 0.00 0.00 0.00 36 1007.6
20260504173053 72 360 3.5 7.8 0.00 0.00 0.00 37 1007.7
20260504171552 71 360 4.3 9.6 0.00 0.00 0.00 39 1007.8